TimeMST,TemperatureF,Dew PointF,Humidity,Sea Level PressureIn,VisibilityMPH,Wind Direction,Wind SpeedMPH,Gust SpeedMPH,PrecipitationIn,Events,Conditions,WindDirDegrees,DateUTC
12:53 AM,30.9,21.0,67,29.52,10.0,WSW,4.6,-,N/A,,Clear,240,2013-02-10 07:53:00
1:53 AM,26.1,19.9,78,29.56,10.0,North,3.5,-,N/A,,Clear,10,2013-02-10 08:53:00
2:53 AM,19.0,15.1,85,29.60,10.0,NE,3.5,-,N/A,,Clear,40,2013-02-10 09:53:00
3:53 AM,25.0,19.9,81,29.58,10.0,Variable,3.5,-,N/A,,Clear,0,2013-02-10 10:53:00
4:53 AM,26.1,19.0,75,29.63,10.0,Variable,4.6,-,N/A,,Clear,0,2013-02-10 11:53:00
5:53 AM,21.0,17.1,85,29.69,10.0,ENE,10.4,-,N/A,,Clear,70,2013-02-10 12:53:00
6:53 AM,18.0,14.0,84,29.76,10.0,East,9.2,-,N/A,,Clear,90,2013-02-10 13:53:00
7:53 AM,25.0,15.1,66,29.78,10.0,North,4.6,-,N/A,,Clear,350,2013-02-10 14:53:00
8:53 AM,30.9,19.0,61,29.79,10.0,North,19.6,25.3,N/A,,Clear,10,2013-02-10 15:53:00
9:53 AM,34.0,21.9,61,29.82,10.0,NNE,16.1,-,N/A,,Clear,20,2013-02-10 16:53:00
10:53 AM,37.0,21.0,52,29.84,10.0,NNE,17.3,-,N/A,,Clear,30,2013-02-10 17:53:00
11:53 AM,39.0,18.0,43,29.83,10.0,NNE,15.0,25.3,N/A,,Partly Cloudy,30,2013-02-10 18:53:00
12:53 PM,41.0,18.0,40,29.81,10.0,NNE,12.7,25.3,N/A,,Partly Cloudy,30,2013-02-10 19:53:00
1:53 PM,42.1,12.9,31,29.82,10.0,North,6.9,-,N/A,,Partly Cloudy,360,2013-02-10 20:53:00
2:53 PM,41.0,12.0,31,29.85,10.0,ESE,6.9,-,N/A,,Mostly Cloudy,120,2013-02-10 21:53:00
3:53 PM,39.9,12.0,32,29.86,10.0,ENE,5.8,-,N/A,,Mostly Cloudy,60,2013-02-10 22:53:00
4:53 PM,39.0,12.0,33,29.88,10.0,East,4.6,-,N/A,,Mostly Cloudy,90,2013-02-10 23:53:00
5:53 PM,37.0,12.0,36,29.96,10.0,ENE,10.4,17.3,N/A,,Overcast,70,2013-02-11 00:53:00
6:53 PM,33.1,18.0,54,30.03,7.0,ENE,11.5,18.4,0.00,Snow,Light Snow,60,2013-02-11 01:53:00
7:03 PM,33.8,17.6,52,29.94,9.0,NNE,3.5,-,0.00,,Overcast,30,2013-02-11 02:03:00
7:53 PM,33.1,17.1,52,30.02,10.0,Calm,Calm,-,0.00,,Overcast,0,2013-02-11 02:53:00
8:53 PM,30.2,12.2,47,30.00,10.0,East,10.4,-,N/A,,Overcast,80,2013-02-11 03:53:00
9:53 PM,28.0,12.0,51,30.08,10.0,ENE,8.1,-,N/A,,Overcast,70,2013-02-11 04:53:00
10:53 PM,27.0,12.9,56,30.09,10.0,East,5.8,-,N/A,,Overcast,100,2013-02-11 05:53:00
11:53 PM,26.1,12.0,55,30.10,10.0,ESE,8.1,-,N/A,,Overcast,120,2013-02-11 06:53:00